STARLINK-34315, 64266

Orbit data source: Space-Track

STARLINK-34315, 64266 is a payload satellite owned by SpaceX/Seattle (US) in LEO that was launched on Wed, 04 Jun 2025 UTC via an FALCON 9 launch vehicle from the Air Force Western Test Range (AFWTR). Payload-class satellites include a variety of spacecraft equipped with specific instruments for various scientific and technological missions. These include communications satellites like Starlink; space stations such as the ISS; scientific satellites like the Hubble; Earth observation satellites from companies like Planet Labs, Umbra, and HawkEye 360; GPS; miniature CubeSats for education and research; and military/defense satellites.

Loading next visibility...
Identifier
64266, 2025-120L
Orbit
LEO
Country
Flag of USUS
Related business
Manufacturer
SpaceX/Seattle
Mission
Operational Commercial Communications
Bus & Motor
STARLINK V2MO, Unknown motor
Mass
575 kg wet, ~530 kg dry
Launch date (UTC)
2025-06-04 (1 year ago)
Launch vehicle
FALCON 9
Launch site
Air Force Western Test Range (AFWTR)
Object type
Payload
Rocket body
Debris
Shape & HBR
Box + 2 Pan, 17.7 m
Radar Cross Section
36.964 m², Large (>1 m²)

Expand to show TLE details & history
Last TLE update: 23 hours ago

TLE from 23 hours ago
0 STARLINK-34315
1 64266U 25120L   26170.90854018  .00026539  00000-0  90465-3 0  9997
2 64266  53.1606   2.0845 0001110  99.0069 261.1058 15.30210961 59502
Epoch: 2026-06-19T21:48Z
TLE epoch observation values (Epoch: 2026-06-19T21:48:17.871Z)
Latitude
0.00002°
Longitude
126.87929°
Altitude
476.2 km
Speed
7.629 km/s
True Right ascension
00h 08m 20s
True Declination
0° 00' 00"
Sunlit
Object was in daylight at epoch
Visualization orbit readout
Latitude
Unknown
Longitude
Unknown
Altitude
Unknown
Speed
Unknown
Apparent Right ascension
Unknown
Apparent Declination
Unknown
Sunlit
N/A
Visualization observer readout
Local Sidereal Time
07:14:09
Azimuth
Unknown
Elevation
Unknown
Doppler factor
Unknown
Orbital elements
Apogee altitude
476.199 km
Perigee altitude
474.678 km
Semi-major axis
6,853.576 km
Eccentricity
0.00011
Inclination
53.1606°
RAAN
2.0845°
Arg. of periapsis
99.0069°
True anomaly
261.09323°
Mean anomaly
261.1058°
Eccentric anomaly
261.09952°
Mean motion
3.82532 °/min
Orbital period
94.11 mins
BSTAR
0.00090465
Loading maneuver chart data...
Computing Atmospheric mass density...
Loading historical data...
Loading historical data...
Loading historical data...
Loading historical data...
Loading historical data...
Loading historical data...
Loading historical data...

Documentation

Showing up to 5 results
|